Triuchirapalli, India

6:06 AM IST on October 19, 2019 (GMT +0530)
Tiruchirappalli

Weather History for VOTR - August, 2019

Change the Weather History Date:

Wednesday, August 21, 2019

  Actual Average Record
Temperature  
Mean Temperature 86 °F -  
Max Temperature 96 °F 91 °F 100 °F (2005)
Min Temperature 77 °F 78 °F 75 °F (1996)
Cooling Degree Days 22    
Growing Degree Days 36 (Base 50)    
Moisture  
Dew Point 74 °F    
Average Humidity 71    
Maximum Humidity 94    
Minimum Humidity 35    
Precipitation  
Precipitation 0.31 in - - ()
Sea Level Pressure  
Sea Level Pressure 29.74 in    
Wind  
Wind Speed 7 mph ()    
Max Wind Speed 16 mph    
Max Gust Speed 28 mph    
Visibility 3.9 miles    
Events Rain    
Averages and records for this station are not official NWS values.
T = Trace of Precipitation, MM = Missing Value Source: Averaged Metar Reports

Daily Weather History Graph

Daily Weather History Graph

Search for Another Location

Airport or City:

Astronomy

Aug. 21, 2019 Rise Set
Actual Time 6:05 AM IST 6:31 PM IST
Civil Twilight 5:43 AM IST 6:52 PM IST
Nautical Twilight 5:18 AM IST 7:17 PM IST
Astronomical Twilight 4:53 AM IST 7:43 PM IST
Moon 10:32 PM IST (8/21) 10:22 AM IST (8/21)
Length of Visible Light 13h 08m
Length of Day
12h 25m
Waning Gibbous, 73% of the Moon is Illuminated
Aug 21
Waning Gibbous
Aug 23
Last Quarter
Aug 30
New
Sep 6
First Quarter
Sep 14
Full

Hourly Weather History & Observations

Time (IST) Temp. Heat Index Dew Point Humidity Pressure Visibility Wind Dir Wind Speed Gust Speed Precip Events Conditions
12:00 AM 78.8 °F - 77.0 °F 94% 29.80 in 3.1 mi NE 4.6 mph - N/A   Light Drizzle
12:30 AM 78.8 °F - 77.0 °F 94% 29.80 in 3.1 mi East 4.6 mph - N/A   Light Drizzle
1:00 AM 78.8 °F - 77.0 °F 94% 29.77 in 3.1 mi ENE 2.3 mph - N/A   Light Drizzle
1:30 AM 78.8 °F - 77.0 °F 94% 29.77 in 3.1 mi WNW 2.3 mph - N/A   Mostly Cloudy
2:00 AM 78.8 °F - 77.0 °F 94% 29.74 in 3.1 mi West 3.5 mph - N/A   Mostly Cloudy
2:30 AM 79 °F - 77 °F 90% 29.75 in 2 mi WSW 3.5 mph - -   Mist
3:00 AM 78.8 °F - 77.0 °F 94% 29.74 in 3.1 mi West 4.6 mph - N/A   Mostly Cloudy
4:00 AM 78.8 °F - 77.0 °F 94% 29.74 in 3.1 mi West 6.9 mph - N/A   Mostly Cloudy
4:30 AM 78.8 °F - 77.0 °F 94% 29.71 in 3.1 mi West 6.9 mph - N/A   Mostly Cloudy
5:00 AM 78.8 °F - 77.0 °F 94% 29.71 in 3.1 mi WNW 9.2 mph - N/A   Mostly Cloudy
5:30 AM 78 °F - 75 °F 89% 29.73 in 2 mi WNW 9.2 mph - -   Mist
5:30 AM 78.8 °F - 75.2 °F 89% 29.74 in 3.7 mi WNW 9.2 mph - N/A   Scattered Clouds
6:00 AM 78.8 °F - 75.2 °F 89% 29.74 in 3.7 mi WNW 9.2 mph - N/A   Scattered Clouds
6:30 AM 78.8 °F - 75.2 °F 89% 29.74 in 3.7 mi West 9.2 mph - N/A   Scattered Clouds
7:30 AM 80.6 °F 86.2 °F 75.2 °F 84% 29.74 in 3.7 mi West 5.8 mph - N/A   Scattered Clouds
8:00 AM 80.6 °F 86.2 °F 75.2 °F 84% 29.77 in 4.3 mi West 10.4 mph - N/A   Scattered Clouds
8:30 AM 82 °F - 75 °F 74% 29.76 in 2 mi West 9.2 mph - -   Scattered Clouds
9:00 AM 84.2 °F 92.3 °F 75.2 °F 74% 29.77 in 5.0 mi West 11.5 mph - N/A   Scattered Clouds
9:30 AM 86.0 °F 95.1 °F 75.2 °F 70% 29.77 in 5.0 mi West 11.5 mph - N/A   Scattered Clouds
10:00 AM 87.8 °F 95.6 °F 73.4 °F 62% 29.77 in 6.2 mi West 11.5 mph - N/A   Scattered Clouds
10:30 AM 89.6 °F 98.2 °F 73.4 °F 59% 29.77 in 6.2 mi West 13.8 mph - N/A   Scattered Clouds
11:00 AM 89.6 °F 98.2 °F 73.4 °F 59% 29.77 in 6.2 mi West 13.8 mph - N/A   Mostly Cloudy
11:30 AM 90 °F - 74 °F 50% 29.75 in 6 mi West 13.8 mph - -   Scattered Clouds
11:30 AM 89.6 °F 98.2 °F 73.4 °F 59% 29.74 in 6.2 mi West 13.8 mph - N/A   Scattered Clouds
12:00 PM 91.4 °F 100.1 °F 73.4 °F 55% 29.74 in 6.2 mi West 13.8 mph - N/A   Scattered Clouds
12:30 PM 91.4 °F 100.1 °F 73.4 °F 55% 29.74 in 6.2 mi WNW 13.8 mph - N/A   Scattered Clouds
1:00 PM 93.2 °F 102.4 °F 73.4 °F 52% 29.71 in 6.2 mi WNW 13.8 mph - N/A   Scattered Clouds
1:30 PM 93.2 °F 102.4 °F 73.4 °F 52% 29.71 in 5.0 mi WNW 13.8 mph - N/A   Partly Cloudy
2:00 PM 95.0 °F 104.5 °F 73.4 °F 49% 29.68 in 5.0 mi WNW 9.2 mph 20.7 mph N/A   Partly Cloudy
2:30 PM 95 °F - 73 °F 40% 29.68 in 2 mi West 11.5 mph - -   Haze
2:30 PM 95.0 °F 104.5 °F 73.4 °F 49% 29.68 in 5.0 mi West 11.5 mph - N/A   Scattered Clouds
3:00 PM 95.0 °F 104.5 °F 73.4 °F 49% 29.68 in 5.0 mi West 9.2 mph 20.7 mph N/A   Scattered Clouds
3:30 PM 95.0 °F 104.5 °F 73.4 °F 49% 29.68 in 5.0 mi West 12.7 mph - N/A   Scattered Clouds
4:00 PM 95.0 °F 104.5 °F 73.4 °F 49% 29.65 in 5.0 mi West 12.7 mph - N/A   Scattered Clouds
4:30 PM 95.0 °F 104.5 °F 73.4 °F 49% 29.65 in 5.0 mi West 11.5 mph - N/A   Scattered Clouds
5:00 PM 95.0 °F 104.5 °F 73.4 °F 49% 29.65 in 5.0 mi West 12.7 mph - N/A   Scattered Clouds
5:30 PM 96 °F - 71 °F 35% 29.65 in 2 mi WSW 11.5 mph - -   Haze
6:00 PM 89.6 °F 96.2 °F 71.6 °F 55% 29.68 in 3.7 mi NW 16.1 mph 27.6 mph N/A   Scattered Clouds
6:30 PM 86.0 °F 91.8 °F 71.6 °F 62% 29.71 in 3.7 mi WNW 11.5 mph - N/A   Scattered Clouds
7:00 PM 84.2 °F 89.6 °F 71.6 °F 66% 29.71 in 3.7 mi West 6.9 mph - N/A   Scattered Clouds
8:00 PM 84.2 °F 89.6 °F 71.6 °F 66% 29.74 in 3.7 mi SSW 3.5 mph - N/A   Scattered Clouds
8:30 PM 84 °F - 74 °F 64% 29.75 in 2 mi SW 4.6 mph - - Rain Light Drizzle
8:30 PM 84.2 °F 90.9 °F 73.4 °F 70% 29.74 in 3.7 mi SW 4.6 mph - N/A   Light Drizzle
9:00 PM 84.2 °F 90.9 °F 73.4 °F 70% 29.77 in 3.7 mi SE 4.6 mph - N/A   Partly Cloudy
10:00 PM 82.4 °F 88.2 °F 73.4 °F 74% 29.80 in 3.1 mi West 9.2 mph - N/A   Drizzle
10:30 PM 82.4 °F 88.2 °F 73.4 °F 74% 29.80 in 2.5 mi NNW 6.9 mph - N/A Rain Rain
11:00 PM 80.6 °F 85.4 °F 73.4 °F 79% 29.83 in 1.9 mi NW 9.2 mph - N/A Rain Rain
11:30 PM 78 °F - 75 °F 88% 29.81 in 1 mi WNW 6.9 mph - - Rain Light Rain
11:30 PM 78.8 °F - 75.2 °F 89% 29.80 in 1.9 mi WNW 6.9 mph - N/A Rain Rain